WMT6US LIPX-LICC

Flight info

Callsign WMT6US
Flight time 1h 21m
Altitude 35000
Route ITEFE T558 LUMAV DCT DIPVO DCT INTUD DCT MALOG DCT PELEN DCT UXUTA DCT LIBRO
Aircraft A21N/M-SDE1E2E3FGIJ1J4RWXY/LB1

Departure

Time 2026-04-22 19:47
Airport Verona Villafranca Valerio Catullo Airport (LIPX)

Arrival

Time 2026-04-22 21:09
Airport Catania-Fontanarossa Airport (LICC)
Time Latitude Longitude Altitude Speed Heading
2026-04-22 18:39 45.40248 10.90511 242 ft 0 kts 135°
2026-04-22 19:26 45.40249 10.90511 242 ft 0 kts 135°
2026-04-22 19:34 45.40247 10.90513 242 ft 0 kts 135°
2026-04-22 19:36 45.40252 10.90506 242 ft 4 kts 136°
2026-04-22 19:36 45.40270 10.90480 242 ft 4 kts 118°
2026-04-22 19:37 45.40274 10.90448 242 ft 4 kts 65°
2026-04-22 19:37 45.40261 10.90424 242 ft 1 kts 45°
2026-04-22 19:37 45.40258 10.90419 242 ft 0 kts 45°
2026-04-22 19:41 45.40268 10.90433 242 ft 4 kts 45°
2026-04-22 19:41 45.40294 10.90471 242 ft 7 kts 45°
2026-04-22 19:41 45.40334 10.90530 242 ft 9 kts 45°
2026-04-22 19:42 45.40383 10.90600 242 ft 11 kts 45°
2026-04-22 19:42 45.40439 10.90683 242 ft 13 kts 46°
2026-04-22 19:42 45.40482 10.90744 242 ft 5 kts 42°
2026-04-22 19:42 45.40488 10.90752 242 ft 1 kts 38°
2026-04-22 19:43 45.40491 10.90754 242 ft 2 kts 37°
2026-04-22 19:43 45.40494 10.90757 242 ft 0 kts 35°
2026-04-22 19:43 45.40495 10.90758 242 ft 1 kts 34°
2026-04-22 19:44 45.40523 10.90746 242 ft 7 kts 329°
2026-04-22 19:44 45.40538 10.90722 242 ft 0 kts 301°
2026-04-22 19:44 45.40538 10.90721 242 ft 1 kts 301°
2026-04-22 19:44 45.40545 10.90707 242 ft 1 kts 304°
2026-04-22 19:45 45.40550 10.90698 242 ft 1 kts 306°
2026-04-22 19:45 45.40560 10.90680 242 ft 4 kts 310°
2026-04-22 19:45 45.40585 10.90664 242 ft 3 kts 348°
2026-04-22 19:45 45.40611 10.90650 242 ft 5 kts 335°
2026-04-22 19:46 45.40635 10.90597 242 ft 8 kts 263°
2026-04-22 19:46 45.40620 10.90507 243 ft 10 kts 258°
2026-04-22 19:46 45.40605 10.90399 243 ft 12 kts 259°
2026-04-22 19:46 45.40562 10.90296 242 ft 14 kts 227°
2026-04-22 19:47 45.40466 10.90154 242 ft 42 kts 226°
2026-04-22 19:47 45.40082 10.89598 244 ft 116 kts 225°
2026-04-22 19:47 45.39357 10.88535 285 ft 176 kts 225°
2026-04-22 19:47 45.38524 10.87257 1035 ft 176 kts 229°
2026-04-22 19:48 45.37794 10.85814 1681 ft 188 kts 242°
2026-04-22 19:48 45.37126 10.84109 2114 ft 209 kts 223°
2026-04-22 19:48 45.35814 10.83101 2427 ft 232 kts 187°
2026-04-22 19:48 45.34169 10.83441 2906 ft 249 kts 152°
2026-04-22 19:49 45.32884 10.85119 3659 ft 256 kts 124°
2026-04-22 19:49 45.31913 10.87280 4547 ft 261 kts 122°
2026-04-22 19:49 45.30927 10.89427 5437 ft 264 kts 123°
2026-04-22 19:49 45.29877 10.91583 6331 ft 267 kts 124°
2026-04-22 19:50 45.28784 10.93740 7178 ft 270 kts 124°
2026-04-22 19:50 45.27660 10.95911 7976 ft 275 kts 124°
2026-04-22 19:50 45.26508 10.98109 8751 ft 280 kts 124°
2026-04-22 19:50 45.25328 11.00344 9535 ft 285 kts 123°
2026-04-22 19:51 45.24137 11.02582 10231 ft 293 kts 123°
2026-04-22 19:51 45.22868 11.04958 10586 ft 311 kts 124°
2026-04-22 19:51 45.21521 11.07475 10962 ft 327 kts 124°
2026-04-22 19:51 45.20126 11.10072 11586 ft 334 kts 124°
2026-04-22 19:52 45.18709 11.12704 12305 ft 338 kts 124°
2026-04-22 19:52 45.17269 11.15375 13048 ft 342 kts 124°
2026-04-22 19:52 45.15812 11.18077 13806 ft 346 kts 124°
2026-04-22 19:52 45.14340 11.20809 14485 ft 350 kts 124°
2026-04-22 19:53 45.12855 11.23558 15125 ft 354 kts 124°
2026-04-22 19:53 45.11258 11.26188 15752 ft 361 kts 134°
2026-04-22 19:53 45.09358 11.28555 16398 ft 366 kts 137°
2026-04-22 19:53 45.07385 11.30888 17031 ft 371 kts 137°
2026-04-22 19:54 45.05396 11.33237 17656 ft 375 kts 137°
2026-04-22 19:54 45.03378 11.35629 18279 ft 380 kts 137°
2026-04-22 19:54 45.01340 11.38052 18828 ft 385 kts 137°
2026-04-22 19:54 44.99270 11.40515 19362 ft 389 kts 137°
2026-04-22 19:55 44.97218 11.42959 19878 ft 393 kts 137°
2026-04-22 19:55 44.95112 11.45464 20393 ft 398 kts 137°
2026-04-22 19:55 44.92977 11.48000 20908 ft 402 kts 137°
2026-04-22 19:55 44.90826 11.50550 21414 ft 406 kts 138°
2026-04-22 19:56 44.88636 11.53131 21928 ft 411 kts 138°
2026-04-22 19:56 44.86455 11.55698 22414 ft 415 kts 138°
2026-04-22 19:56 44.84233 11.58327 22892 ft 419 kts 138°
2026-04-22 19:56 44.81924 11.60897 23372 ft 425 kts 145°
2026-04-22 19:57 44.79286 11.62814 23827 ft 429 kts 158°
2026-04-22 19:57 44.76456 11.64276 24221 ft 433 kts 161°
2026-04-22 19:57 44.73590 11.65679 24608 ft 437 kts 161°
2026-04-22 19:57 44.70710 11.67099 24991 ft 441 kts 161°
2026-04-22 19:58 44.67845 11.68532 25356 ft 444 kts 161°
2026-04-22 19:58 44.64918 11.69999 25728 ft 448 kts 162°
2026-04-22 19:58 44.61962 11.71485 26101 ft 452 kts 162°
2026-04-22 19:58 44.58995 11.72979 26455 ft 455 kts 162°
2026-04-22 19:59 44.55996 11.74490 26816 ft 459 kts 162°
2026-04-22 20:00 44.37555 11.83752 28780 ft 480 kts 164°
2026-04-22 20:00 44.34407 11.85332 29086 ft 483 kts 164°
2026-04-22 20:01 44.31223 11.86925 29386 ft 486 kts 164°
2026-04-22 20:01 44.28027 11.88523 29672 ft 490 kts 165°
2026-04-22 20:01 44.24841 11.90114 29942 ft 493 kts 165°
2026-04-22 20:01 44.21590 11.91733 30226 ft 496 kts 165°
2026-04-22 20:02 44.18330 11.93357 30466 ft 499 kts 165°
2026-04-22 20:02 44.15049 11.94993 30737 ft 501 kts 165°
2026-04-22 20:02 44.11749 11.96636 31001 ft 503 kts 165°
2026-04-22 20:02 44.08479 11.98262 31255 ft 505 kts 165°
2026-04-22 20:03 44.05159 11.99901 31494 ft 507 kts 165°
2026-04-22 20:03 44.01835 12.01541 31769 ft 507 kts 165°
2026-04-22 20:03 43.98509 12.03187 32096 ft 506 kts 165°
2026-04-22 20:03 43.95188 12.04823 32369 ft 506 kts 166°
2026-04-22 20:04 43.91905 12.06440 32668 ft 507 kts 166°
2026-04-22 20:04 43.88589 12.08077 32948 ft 505 kts 166°
2026-04-22 20:04 43.85264 12.09714 33294 ft 504 kts 166°
2026-04-22 20:04 43.81964 12.11337 33606 ft 502 kts 166°
2026-04-22 20:05 43.78667 12.12957 33899 ft 501 kts 166°
2026-04-22 20:05 43.75378 12.14568 34194 ft 500 kts 166°
2026-04-22 20:05 43.72132 12.16153 34421 ft 499 kts 166°
2026-04-22 20:05 43.68856 12.17752 34636 ft 498 kts 166°
2026-04-22 20:06 43.65579 12.19355 34873 ft 497 kts 166°
2026-04-22 20:06 43.62305 12.20889 35060 ft 495 kts 169°
2026-04-22 20:06 43.58994 12.22143 35221 ft 492 kts 171°
2026-04-22 20:07 43.52417 12.24522 35228 ft 490 kts 171°
2026-04-22 20:07 43.45809 12.26906 35202 ft 490 kts 171°
2026-04-22 20:08 43.39206 12.29292 35189 ft 490 kts 171°
2026-04-22 20:08 43.32650 12.31653 35184 ft 490 kts 171°
2026-04-22 20:09 43.26060 12.34031 35180 ft 490 kts 171°
2026-04-22 20:09 43.19458 12.36406 35162 ft 490 kts 171°
2026-04-22 20:10 43.12869 12.38770 35161 ft 489 kts 172°
2026-04-22 20:10 43.06271 12.41117 35166 ft 489 kts 172°
2026-04-22 20:11 42.99714 12.43466 35169 ft 489 kts 172°
2026-04-22 20:11 42.93109 12.45816 35172 ft 489 kts 172°
2026-04-22 20:12 42.86521 12.48152 35166 ft 489 kts 172°
2026-04-22 20:12 42.81040 12.50094 35164 ft 489 kts 172°
2026-04-22 20:13 42.73375 12.52810 35156 ft 489 kts 172°
2026-04-22 20:13 42.66783 12.55128 35153 ft 488 kts 172°
2026-04-22 20:14 42.60242 12.57425 35140 ft 487 kts 172°
2026-04-22 20:14 42.53669 12.59736 35134 ft 486 kts 171°
2026-04-22 20:15 42.47147 12.62064 35131 ft 488 kts 168°
2026-04-22 20:15 42.40727 12.65269 35123 ft 491 kts 163°
2026-04-22 20:16 42.34345 12.68592 35116 ft 491 kts 164°
2026-04-22 20:16 42.27988 12.71848 35111 ft 491 kts 164°
2026-04-22 20:17 42.21613 12.75095 35112 ft 491 kts 164°
2026-04-22 20:17 42.15226 12.78348 35102 ft 491 kts 164°
2026-04-22 20:18 42.08827 12.81605 35093 ft 490 kts 164°
2026-04-22 20:18 42.02432 12.84836 35080 ft 490 kts 164°
2026-04-22 20:19 41.96100 12.88037 35070 ft 489 kts 164°
2026-04-22 20:19 41.89709 12.91250 35086 ft 489 kts 164°
2026-04-22 20:20 41.84402 12.93918 35083 ft 489 kts 164°
2026-04-22 20:20 41.78035 12.97119 35083 ft 488 kts 164°
2026-04-22 20:21 41.71671 13.00322 35088 ft 487 kts 164°
2026-04-22 20:21 41.65320 13.03494 35087 ft 485 kts 164°
2026-04-22 20:22 41.59001 13.06644 35097 ft 485 kts 164°
2026-04-22 20:22 41.52704 13.09774 35088 ft 485 kts 164°
2026-04-22 20:23 41.46382 13.12932 35095 ft 484 kts 164°
2026-04-22 20:23 41.40056 13.16077 35090 ft 483 kts 164°
2026-04-22 20:24 41.33798 13.19184 35087 ft 482 kts 164°
2026-04-22 20:24 41.27499 13.22296 35076 ft 481 kts 164°
2026-04-22 20:25 41.21262 13.25373 35079 ft 480 kts 164°
2026-04-22 20:25 41.15006 13.28454 35084 ft 479 kts 164°
2026-04-22 20:26 41.08760 13.31521 35080 ft 478 kts 164°
2026-04-22 20:26 41.02553 13.34563 35076 ft 477 kts 164°
2026-04-22 20:27 40.96345 13.37601 35080 ft 477 kts 164°
2026-04-22 20:27 40.90117 13.40638 35077 ft 477 kts 164°
2026-04-22 20:28 40.83876 13.43684 35075 ft 476 kts 165°
2026-04-22 20:28 40.77667 13.46696 35077 ft 476 kts 164°
2026-04-22 20:29 40.71447 13.49721 35083 ft 476 kts 165°
2026-04-22 20:29 40.65232 13.52732 35079 ft 475 kts 165°
2026-04-22 20:30 40.59047 13.55722 35074 ft 475 kts 165°
2026-04-22 20:30 40.52818 13.58677 35080 ft 473 kts 167°
2026-04-22 20:31 40.46532 13.61261 35081 ft 472 kts 168°
2026-04-22 20:31 40.40291 13.63797 35075 ft 472 kts 168°
2026-04-22 20:32 40.34028 13.66344 35074 ft 471 kts 167°
2026-04-22 20:32 40.27758 13.68890 35071 ft 471 kts 168°
2026-04-22 20:33 40.21533 13.71403 35071 ft 470 kts 168°
2026-04-22 20:33 40.15263 13.73942 35072 ft 470 kts 168°
2026-04-22 20:34 40.09035 13.76453 35068 ft 470 kts 168°
2026-04-22 20:34 40.02771 13.78980 35065 ft 469 kts 168°
2026-04-22 20:35 39.96524 13.81485 35062 ft 469 kts 168°
2026-04-22 20:35 39.90290 13.83988 35059 ft 468 kts 168°
2026-04-22 20:36 39.84112 13.86466 35060 ft 467 kts 168°
2026-04-22 20:36 39.77882 13.88958 35061 ft 467 kts 168°
2026-04-22 20:37 39.71699 13.91416 35059 ft 467 kts 168°
2026-04-22 20:37 39.65473 13.93893 35054 ft 467 kts 168°
2026-04-22 20:38 39.59259 13.96368 35054 ft 466 kts 168°
2026-04-22 20:38 39.53051 13.98828 35052 ft 466 kts 168°
2026-04-22 20:39 39.46880 14.01269 35053 ft 466 kts 168°
2026-04-22 20:39 39.40679 14.03720 35047 ft 465 kts 168°
2026-04-22 20:40 39.34475 14.06165 35051 ft 465 kts 168°
2026-04-22 20:40 39.28286 14.08604 35052 ft 465 kts 168°
2026-04-22 20:41 39.22144 14.11021 35036 ft 462 kts 168°
2026-04-22 20:41 39.19080 14.12228 34755 ft 455 kts 168°
2026-04-22 20:41 39.16069 14.13408 34497 ft 451 kts 168°
2026-04-22 20:41 39.13069 14.14582 34245 ft 449 kts 168°
2026-04-22 20:42 39.10112 14.15740 33988 ft 447 kts 168°
2026-04-22 20:42 39.07141 14.16903 33542 ft 443 kts 168°
2026-04-22 20:42 39.04196 14.18055 33025 ft 439 kts 169°
2026-04-22 20:42 39.01284 14.19191 32528 ft 435 kts 169°
2026-04-22 20:43 38.98389 14.20317 31996 ft 433 kts 169°
2026-04-22 20:43 38.95505 14.21440 31473 ft 430 kts 169°
2026-04-22 20:43 38.92653 14.22551 30973 ft 428 kts 169°
2026-04-22 20:43 38.89839 14.23643 30474 ft 425 kts 169°
2026-04-22 20:44 38.87020 14.24737 29986 ft 422 kts 169°
2026-04-22 20:44 38.84212 14.25825 29408 ft 420 kts 169°
2026-04-22 20:44 38.81426 14.26904 28877 ft 417 kts 169°
2026-04-22 20:44 38.78649 14.27981 28379 ft 414 kts 169°
2026-04-22 20:45 38.75905 14.29045 27900 ft 410 kts 169°
2026-04-22 20:45 38.73185 14.30099 27428 ft 407 kts 169°
2026-04-22 20:45 38.70468 14.31029 27017 ft 398 kts 177°
2026-04-22 20:45 38.67740 14.31422 26715 ft 393 kts 182°
2026-04-22 20:46 38.62304 14.31935 26188 ft 390 kts 182°
2026-04-22 20:46 38.59600 14.32213 25904 ft 389 kts 181°
2026-04-22 20:46 38.56912 14.32507 25593 ft 387 kts 181°
2026-04-22 20:47 38.54262 14.32803 25225 ft 384 kts 181°
2026-04-22 20:47 38.51610 14.33102 24801 ft 382 kts 181°
2026-04-22 20:47 38.48960 14.33401 24325 ft 381 kts 181°
2026-04-22 20:47 38.46319 14.33699 23868 ft 380 kts 181°
2026-04-22 20:48 38.43684 14.33997 23389 ft 379 kts 181°
2026-04-22 20:48 38.41052 14.34294 22876 ft 377 kts 181°
2026-04-22 20:48 38.38467 14.34586 22407 ft 375 kts 181°
2026-04-22 20:48 38.35871 14.34880 21911 ft 374 kts 181°
2026-04-22 20:49 38.33280 14.35172 21431 ft 372 kts 181°
2026-04-22 20:49 38.30694 14.35464 20972 ft 370 kts 180°
2026-04-22 20:49 38.28168 14.35748 20520 ft 368 kts 180°
2026-04-22 20:49 38.25620 14.36035 20061 ft 366 kts 180°
2026-04-22 20:50 38.23082 14.36320 19647 ft 364 kts 180°
2026-04-22 20:50 38.20552 14.36605 19223 ft 362 kts 180°
2026-04-22 20:50 38.18035 14.36885 18805 ft 361 kts 180°
2026-04-22 20:50 38.15564 14.37160 18388 ft 360 kts 180°
2026-04-22 20:51 38.13058 14.37439 17936 ft 360 kts 180°
2026-04-22 20:51 38.10573 14.37717 17509 ft 358 kts 180°
2026-04-22 20:51 38.08093 14.37993 17092 ft 357 kts 180°
2026-04-22 20:51 38.05614 14.38271 16674 ft 356 kts 180°
2026-04-22 20:52 38.03144 14.38547 16285 ft 355 kts 180°
2026-04-22 20:52 38.00723 14.38818 15918 ft 352 kts 180°
2026-04-22 20:52 37.98307 14.39090 15534 ft 344 kts 179°
2026-04-22 20:52 37.95949 14.39355 15178 ft 337 kts 180°
2026-04-22 20:53 37.93636 14.39613 14819 ft 332 kts 180°
2026-04-22 20:53 37.91351 14.39866 14430 ft 327 kts 180°
2026-04-22 20:53 37.89093 14.40118 14059 ft 322 kts 180°
2026-04-22 20:53 37.86872 14.40364 13679 ft 319 kts 179°
2026-04-22 20:54 37.84659 14.40608 13307 ft 319 kts 179°
2026-04-22 20:54 37.82448 14.40853 12946 ft 319 kts 179°
2026-04-22 20:54 37.80239 14.41097 12584 ft 318 kts 179°
2026-04-22 20:54 37.78023 14.41343 12194 ft 320 kts 179°
2026-04-22 20:55 37.75832 14.41586 11822 ft 320 kts 179°
2026-04-22 20:55 37.73606 14.41833 11454 ft 320 kts 179°
2026-04-22 20:55 37.71381 14.42079 11083 ft 320 kts 178°
2026-04-22 20:55 37.69148 14.42324 10711 ft 320 kts 178°
2026-04-22 20:56 37.66928 14.42569 10346 ft 321 kts 178°
2026-04-22 20:56 37.64742 14.42811 10031 ft 316 kts 178°
2026-04-22 20:56 37.62585 14.43051 9807 ft 304 kts 178°
2026-04-22 20:56 37.60495 14.43283 9403 ft 297 kts 178°
2026-04-22 20:57 37.58488 14.43504 8994 ft 290 kts 178°
2026-04-22 20:57 37.56490 14.43724 8594 ft 287 kts 178°
2026-04-22 20:57 37.54503 14.43942 8220 ft 287 kts 177°
2026-04-22 20:57 37.52508 14.44162 7858 ft 286 kts 177°
2026-04-22 20:58 37.50543 14.44378 7521 ft 285 kts 177°
2026-04-22 20:58 37.48564 14.44595 7186 ft 283 kts 176°
2026-04-22 20:58 37.46632 14.44809 6974 ft 273 kts 176°
2026-04-22 20:58 37.44790 14.45014 6971 ft 258 kts 176°
2026-04-22 20:59 37.43113 14.45529 7029 ft 238 kts 152°
2026-04-22 20:59 37.41926 14.46893 7008 ft 237 kts 117°
2026-04-22 20:59 37.41491 14.48851 7036 ft 233 kts 87°
2026-04-22 20:59 37.41655 14.50873 7008 ft 232 kts 78°
2026-04-22 21:00 37.41904 14.52881 7033 ft 232 kts 79°
2026-04-22 21:00 37.42126 14.54894 7019 ft 232 kts 80°
2026-04-22 21:00 37.42329 14.56920 6995 ft 232 kts 80°
2026-04-22 21:00 37.42517 14.58906 6753 ft 231 kts 81°
2026-04-22 21:01 37.42699 14.60909 6428 ft 229 kts 81°
2026-04-22 21:01 37.42876 14.62897 6072 ft 227 kts 81°
2026-04-22 21:01 37.43051 14.64864 5726 ft 225 kts 81°
2026-04-22 21:01 37.43248 14.66800 5382 ft 221 kts 77°
2026-04-22 21:02 37.43483 14.68676 5050 ft 220 kts 82°
2026-04-22 21:02 37.43655 14.70591 4949 ft 220 kts 82°
2026-04-22 21:02 37.43817 14.72497 4929 ft 219 kts 82°
2026-04-22 21:02 37.43978 14.74405 4792 ft 218 kts 82°
2026-04-22 21:03 37.44136 14.76291 4561 ft 210 kts 82°
2026-04-22 21:03 37.44284 14.78067 4361 ft 199 kts 82°
2026-04-22 21:03 37.44427 14.79774 4097 ft 192 kts 83°
2026-04-22 21:03 37.44565 14.81420 3833 ft 186 kts 83°
2026-04-22 21:04 37.44698 14.83011 3574 ft 179 kts 83°
2026-04-22 21:04 37.44826 14.84543 3325 ft 172 kts 84°
2026-04-22 21:04 37.44946 14.85974 3089 ft 160 kts 84°
2026-04-22 21:04 37.45061 14.87352 2874 ft 157 kts 84°
2026-04-22 21:05 37.45176 14.88718 2685 ft 152 kts 84°
2026-04-22 21:05 37.45285 14.90021 2492 ft 148 kts 84°
2026-04-22 21:05 37.45356 14.90870 2361 ft 148 kts 84°
2026-04-22 21:05 37.45498 14.92572 2093 ft 147 kts 84°
2026-04-22 21:06 37.45605 14.93850 1898 ft 146 kts 84°
2026-04-22 21:06 37.45712 14.95121 1695 ft 146 kts 84°
2026-04-22 21:06 37.45826 14.96394 1496 ft 146 kts 84°
2026-04-22 21:06 37.45888 14.97235 1384 ft 146 kts 85°
2026-04-22 21:07 37.45997 14.98519 1187 ft 146 kts 84°
2026-04-22 21:07 37.46107 14.99769 973 ft 145 kts 84°
2026-04-22 21:07 37.46196 15.01035 740 ft 144 kts 84°
2026-04-22 21:07 37.46306 15.02288 596 ft 144 kts 83°
2026-04-22 21:08 37.46409 15.03535 373 ft 142 kts 83°
2026-04-22 21:08 37.46523 15.04769 167 ft 141 kts 83°
2026-04-22 21:08 37.46622 15.05978 46 ft 135 kts 83°
2026-04-22 21:08 37.46709 15.06995 41 ft 81 kts 84°
2026-04-22 21:09 37.46741 15.07373 42 ft 27 kts 84°
2026-04-22 21:09 37.46766 15.07566 39 ft 16 kts 63°
2026-04-22 21:09 37.46816 15.07692 42 ft 16 kts 61°
2026-04-22 21:09 37.46869 15.07791 39 ft 4 kts 49°
2026-04-22 21:10 37.46899 15.07805 38 ft 5 kts 358°
2026-04-22 21:10 37.46933 15.07774 38 ft 7 kts 297°
2026-04-22 21:10 37.46933 15.07703 38 ft 9 kts 263°
2026-04-22 21:10 37.46925 15.07613 38 ft 11 kts 265°
2026-04-22 21:11 37.46915 15.07506 38 ft 13 kts 265°
2026-04-22 21:11 37.46907 15.07411 38 ft 6 kts 265°
2026-04-22 21:11 37.46902 15.07349 38 ft 8 kts 264°
2026-04-22 21:11 37.46894 15.07267 38 ft 10 kts 262°
2026-04-22 21:12 37.46888 15.07168 38 ft 12 kts 265°
2026-04-22 21:12 37.46882 15.07101 38 ft 5 kts 263°
2026-04-22 21:12 37.46877 15.07046 37 ft 7 kts 266°
2026-04-22 21:12 37.46871 15.06973 37 ft 9 kts 264°
2026-04-22 21:13 37.46864 15.06883 37 ft 11 kts 264°
2026-04-22 21:13 37.46863 15.06832 37 ft 6 kts 294°
2026-04-22 21:13 37.46906 15.06817 37 ft 7 kts 353°
2026-04-22 21:13 37.46932 15.06812 37 ft 3 kts 358°
2026-04-22 21:14 37.46936 15.06812 37 ft 0 kts 357°
2026-04-22 21:32 37.46935 15.06812 37 ft 0 kts 357°